Challenge Hesbignon

Le Jogging De La Côte Des Ânes à Oleye (5.90 km)

dimanche 14 avril 2019

Le classement original se trouve sur : http://www.challengehesbignon.be/
CHALLENGE HESBIGNON
LE JOGGING DE LA CÔTE DES ÂNES - OLEYE
DISTANCE 5.90 km
dimanche 14 avril 2019
 
Place dos Nom Cat. Pl/Cat. temps temps/km Vitesse
1 5013 ADANG NIELS H 1 00:22:09 03:45 15.98
2 703 MANETTE OLIVIER H 2 00:22:21 03:47 15.84
3 728 ARTUS MARVIN H 3 00:22:44 03:51 15.57
4 5062 DEHIN RÉGINALD H 4 00:22:53 03:53 15.47
5 733 CRISTOFOLI MARCO H 5 00:23:30 03:59 15.06
6 5006 BARCHY HINDERK H 6 00:23:51 04:03 14.84
7 812 LEMIRE FREDERIC H 7 00:24:29 04:09 14.46
8 712 FADDA ALEXIS CH 1 00:24:32 04:09 14.43
9 720 COX BENOIT H 8 00:24:40 04:11 14.35
10 819 VELARQUEZ SALEZ TANGUY CH 2 00:24:41 04:11 14.34
11 803 LAMATTINA LUCAS CH 3 00:24:45 04:12 14.30
12 5023 NOEL MATHIS H 9 00:25:07 04:15 14.09
13 764 OLIVIER BASTIEN EH 1 00:25:27 04:19 13.91
14 5037 VANLUYTEN VICKY F 1 00:25:38 04:21 13.81
15 789 MARTINESSE EMMANUEL H 10 00:26:15 04:27 13.49
16 5007 LAMATTINA THOMAS EH 2 00:26:31 04:30 13.35
17 5056 COP THOMAS H 11 00:26:41 04:31 13.27
18 773 BONHOMME LAURENT H 12 00:26:47 04:32 13.22
19 759 KEMPINAIRE ARTHUR H 13 00:26:50 04:33 13.19
20 795 COX DIDIER H 14 00:26:52 04:33 13.18
21 5061 HUCORNE PIERRE-YVES H 15 00:27:05 04:35 13.07
22 809 SCALAIS JULIE CF 1 00:27:26 04:39 12.90
23 724 GRIFNEE JOHAN H 16 00:28:04 04:45 12.61
24 5036 VANLUYTEN DIRK H 17 00:28:07 04:46 12.59
25 5022 NOEL CHRISTOPHE H 18 00:28:14 04:47 12.54
26 781 DRIESEN JET F 2 00:28:20 04:48 12.49
27 763 COTE VIRGINIE F 3 00:28:31 04:50 12.41
28 5053 CAMBIER MANON CF 2 00:28:35 04:51 12.38
29 780 DRIESEN LOES F 4 00:28:57 04:54 12.23
30 772 FIEVEZ LISIANNE F 5 00:29:11 04:57 12.13
31 5045 BOLANGER KEANO CH 4 00:29:16 04:58 12.10
32 719 CORDONNIER PHILIPPE H 19 00:29:19 04:58 12.08
33 741 BECK SANDRINE F 6 00:29:40 05:02 11.93
34 804 GRECO PIETRO H 20 00:30:29 05:10 11.61
35 5002 LEROY OLIVIER H 21 00:31:28 05:20 11.25
36 734 CRISTOFOLI LUCA CH 5 00:31:42 05:22 11.17
37 778 LEONARD SARAH F 7 00:31:47 05:23 11.14
38 793 DURANT ROMAIN H 22 00:31:55 05:25 11.09
39 5010 VALELEN GUILLAUME H 23 00:32:18 05:28 10.96
40 760 CUYPERS MATHILDE F 8 00:32:27 05:30 10.91
41 810 PAULUS PIERRE-YVES H 24 00:32:28 05:30 10.90
42 816 LEMMENS BERNADETTE F 9 00:32:38 05:32 10.85
43 5064 MOROSANU ROXANA F 10 00:32:51 05:34 10.78
44 718 TANASE ARIELLE F 11 00:32:57 05:35 10.74
45 5032 GIELEN PIERRE H 25 00:33:12 05:38 10.66
46 5057 CRISTOFOLI CAROLINE CF 3 00:33:13 05:38 10.66
47 5060 JADOUL CÉDRIC H 26 00:33:32 05:41 10.56
48 5005 LEURQUIN FRÉDÉRIC H 27 00:33:38 05:42 10.53
49 784 AIDAN LAURENT H 28 00:33:47 05:44 10.48
50 5026 PEETERSILLE GABRIEL H 29 00:33:57 05:45 10.43
51 761 RENARD PATRICK H 30 00:33:58 05:45 10.42
52 799 ELIARD MARINE EF 1 00:34:10 05:47 10.36
53 5011 WILMS KART H 31 00:34:48 05:54 10.17
54 738 GILLAIN MANUEL H 32 00:34:55 05:55 10.14
55 725 HEINE VERONIQUE F 12 00:35:24 06:00 10.00
56 708 ROBYNS THOMAS H 33 00:35:27 06:01 9.99
57 723 KEPPENNE EVELYNE F 13 00:35:41 06:03 9.92
58 5050 MAES TIUS CH 6 00:35:46 06:04 9.90
59 752 DOCQUIER MANON EF 2 00:35:50 06:04 9.88
60 5052 ERNST LOU-ANN CF 4 00:36:04 06:07 9.82
61 5063 MERCENIER BERNARD H 34 00:36:10 06:08 9.79
62 5046 BOLANGER JENS EH 3 00:36:46 06:14 9.63
63 707 VANHEES VICKY F 14 00:36:46 06:14 9.63
64 777 GROMMEN JAN H 35 00:37:19 06:19 9.49
65 776 SMETS KRISTEL F 15 00:37:19 06:19 9.49
66 785 AIDAN SIMON EH 4 00:37:22 06:20 9.47
67 753 STRYCKERS LIEVE F 16 00:37:24 06:20 9.47
68 5001 FOURNY PHILIPPE H 36 00:37:27 06:21 9.45
69 5054 MENU LAURA F 17 00:38:12 06:28 9.27
70 732 DEWAELHEYNS GREGORY H 37 00:38:25 06:31 9.21
71 5024 CLAES NAHLAXANNELI CF 5 00:38:35 06:32 9.17
72 748 DOCQUIER RUDI H 38 00:38:43 06:34 9.14
73 5067 VERSTRAETE ARNAUD H 39 00:38:50 06:35 9.12
74 1324 TORSIN LINE F 18 00:38:59 06:36 9.08
75 790 VANDEVELDE NENA F 19 00:38:59 06:36 9.08
76 706 DEBIEVRE GAELLE F 20 00:39:00 06:37 9.08
77 786 LEKEUX PAULINE CF 6 00:39:06 06:38 9.05
78 5009 BRIAT VINCENT H 40 00:39:07 06:38 9.05
79 5004 PHILIPPAERS GUIDO H 41 00:39:13 06:39 9.03
80 5030 CHARLIER LAURENCE F 21 00:39:18 06:40 9.01
81 5051 WELLENS SOPHIE F 22 00:39:23 06:41 8.99
82 5014 BARBIER CHARLOTTE EF 3 00:39:40 06:43 8.92
83 782 DEVOS ERINE CF 7 00:39:40 06:43 8.92
84 745 LEMMENS ISABELLE F 23 00:39:51 06:45 8.88
85 744 LEROY JEAN-FRANCOIS H 42 00:39:51 06:45 8.88
86 5066 DUYSLINX SACHA F 24 00:39:52 06:45 8.88
87 5016 DENDAUW MARIE-CAIRE F 25 00:39:54 06:46 8.87
88 762 MICHOTTE EMILIEN CH 7 00:40:20 06:50 8.78
89 758 DENIS VALERIE F 26 00:40:21 06:50 8.77
90 5059 DECOURTY DELPHINE F 27 00:40:21 06:50 8.77
91 5035 NOULIN OLIVIER H 43 00:40:30 06:52 8.74
92 740 HEYLEN VINCENT H 44 00:40:32 06:52 8.73
93 5029 PAGANELLI TIZIANA F 28 00:40:32 06:52 8.73
94 714 APPLINCOURT JEAN-PIERRE H 45 00:40:36 06:53 8.72
95 800 ELIARD FABIEN H 46 00:40:58 06:57 8.64
96 792 RYCKAERT JACQUELINE F 29 00:41:00 06:57 8.63
97 5049 CEUNEN GOEDELE F 30 00:41:02 06:57 8.63
98 5018 MONFORT JESSICA F 31 00:41:02 06:57 8.63
99 5019 LA JACONA LETIZIA F 32 00:41:03 06:57 8.62
100 5021 MORENO ALIX F 33 00:41:12 06:59 8.59
101 5048 MAES LUKAS H 47 00:41:16 07:00 8.58
102 5020 DELAHAUT MAROUSHA F 34 00:41:20 07:00 8.56
103 5055 DECROISSON ELEONORE F 35 00:41:47 07:05 8.47
104 794 CORDY EVA CF 8 00:41:47 07:05 8.47
105 5041 COUDIJZER ARTHUR H 48 00:41:49 07:05 8.47
106 5012 ROTHHCUT STEVEN H 49 00:42:09 07:09 8.40
107 5028 GEETS TINA F 36 00:42:18 07:10 8.37
108 5043 DE DONCKER LIES F 37 00:42:18 07:10 8.37
109 5042 HAUBRECHTZ LIESBETH F 38 00:42:18 07:10 8.37
110 5044 SOLEIL FRANÇOISE F 39 00:42:19 07:10 8.37
111 5031 PAUWELS ISABELLE F 40 00:42:45 07:15 8.28
112 5040 NISSEN VALÉRIE F 41 00:42:50 07:16 8.26
113 5039 MUSIQUE PASCAL H 50 00:43:20 07:21 8.17
114 5038 MUSIQUE OCÉANE EF 4 00:43:20 07:21 8.17
115 5025 PEETERSILLE BENOIT H 51 00:43:39 07:24 8.11
116 766 OLIVIER VICKY F 42 00:44:41 07:34 7.92
117 814 DE NEUVILLE JÉROME-EMMANUEL H 52 00:44:45 07:35 7.91
118 5017 DE NEUVILLE DIANE EF 5 00:44:54 07:37 7.88
119 5058 GRENSON HÉLCNE F 43 00:44:55 07:37 7.88
120 5047 SPAGNOLETTI SANDRA F 44 00:45:00 07:38 7.87
121 796 LIVIS JULIE F 45 00:45:19 07:41 7.81
122 797 NOBLUEZ VALERIE F 46 00:45:19 07:41 7.81
123 813 MASSET AURÉLIE F 47 00:46:09 07:49 7.67
124 820 LARONDELLE ELODIE F 48 00:46:09 07:49 7.67
125 713 LEKEU JOEY H 53 00:46:50 07:56 7.56
126 701 JARMOUNI RAPHAELLE F 49 00:46:51 07:56 7.56
127 722 CATOUL OLIVIER H 54 00:46:51 07:56 7.56
128 5027 MASSART ANNELIE F 50 00:47:09 07:59 7.51
129 5003 TONACHELLA CLAUDIA F 51 00:47:50 08:06 7.40
130 5034 NOULIN JULIE EF 6 00:49:14 08:21 7.19
131 5008 MAQUOI VALÉRIE F 52 00:50:30 08:34 7.01
132 5065 ZEGELS ESTHER F 53 00:54:26 09:14 6.50
133 5033 O'CONNOR MICHEL H 55 00:54:56 09:19 6.44
134 817 CARA THIRY AMANDINE CF 9 00:55:01 09:19 6.43
135 739 FOLDESI ZAZIE CF 10 00:55:02 09:20 6.43
136 5015 KABWE JEANNE F 54 00:55:13 09:22 6.41
137 818 THIRY VÉRONIQUE F 55 00:55:14 09:22 6.41